| time (UTC) | temp C | wind direction | speed KPH | gust KPH | rain 1hr cm | rain 24hr cm | rain mn cm | humidity % | barometer mb |
| 20260508204940 | 15 | 242 | 1.6 | 3.2 | 0.00 | 0.00 | 0.00 | 63 | 1012.9 |
| 20260508203410 | 16 | 227 | 4.8 | 4.8 | 0.00 | 0.00 | 0.00 | 63 | 1013.1 |
| 20260508201903 | 16 | 218 | 1.6 | 4.8 | 0.00 | 0.00 | 0.00 | 67 | 1013.1 |
| 20260508200420 | 17 | 210 | 3.2 | 4.8 | 0.00 | 0.00 | 0.00 | 63 | 1013.3 |
| 20260508194910 | 17 | 247 | 3.2 | 3.2 | 0.00 | 0.00 | 0.00 | 62 | 1013.5 |
| 20260508193340 | 17 | 261 | 1.6 | 3.2 | 0.00 | 0.00 | 0.00 | 60 | 1013.7 |
| 20260508191840 | 18 | 277 | 6.4 | 9.7 | 0.00 | 0.00 | 0.00 | 52 | 1014.0 |
| 20260508190354 | 18 | 269 | 0.0 | 1.6 | 0.00 | 0.00 | 0.00 | 48 | 1014.0 |
| 20260508184830 | 18 | 274 | 0.0 | 1.6 | 0.00 | 0.00 | 0.00 | 48 | 1014.1 |
| 20260508183329 | 18 | 293 | 0.0 | 1.6 | 0.00 | 0.00 | 0.00 | 53 | 1014.5 |
| 20260508181827 | 17 | 267 | 4.8 | 6.4 | 0.00 | 0.00 | 0.00 | 55 | 1014.2 |
| 20260508180323 | 17 | 284 | 0.0 | 1.6 | 0.00 | 0.00 | 0.00 | 54 | 1014.6 |
| 20260508174820 | 18 | 281 | 3.2 | 4.8 | 0.00 | 0.00 | 0.00 | 50 | 1014.6 |
| 20260508173338 | 18 | 288 | 0.0 | 1.6 | 0.00 | 0.00 | 0.00 | 50 | 1015.0 |
| 20260508171817 | 17 | 289 | 0.0 | 0.0 | 0.00 | 0.00 | 0.00 | 52 | 1015.1 |
| 20260508170332 | 17 | 264 | 0.0 | 3.2 | 0.00 | 0.00 | 0.00 | 53 | 1015.3 |
| 20260508164810 | 16 | 268 | 1.6 | 3.2 | 0.00 | 0.00 | 0.00 | 58 | 1015.5 |
| 20260508163300 | 16 | 271 | 0.0 | 1.6 | 0.00 | 0.00 | 0.00 | 59 | 1015.9 |
| 20260508161751 | 15 | 281 | 1.6 | 3.2 | 0.00 | 0.00 | 0.00 | 62 | 1016.1 |
| 20260508160250 | 16 | 268 | 3.2 | 4.8 | 0.00 | 0.00 | 0.00 | 61 | 1016.0 |
| 20260508154743 | 15 | 292 | 3.2 | 3.2 | 0.00 | 0.00 | 0.00 | 63 | 1016.3 |
| 20260508153240 | 16 | 238 | 1.6 | 3.2 | 0.00 | 0.00 | 0.00 | 60 | 1016.1 |
| 20260508151730 | 16 | 277 | 0.0 | 0.0 | 0.00 | 0.00 | 0.00 | 62 | 1016.3 |
| 20260508150221 | 15 | 284 | 0.0 | 0.0 | 0.00 | 0.00 | 0.00 | 63 | 1016.1 |
| 20260508144720 | 15 | 289 | 0.0 | 1.6 | 0.00 | 0.00 | 0.00 | 62 | 1016.3 |
| 20260508143230 | 14 | 281 | 0.0 | 0.0 | 0.00 | 0.00 | 0.00 | 66 | 1016.2 |
| 20260508141720 | 14 | 282 | 0.0 | 0.0 | 0.00 | 0.00 | 0.00 | 65 | 1016.2 |
| 20260508140200 | 14 | 264 | 0.0 | 1.6 | 0.00 | 0.00 | 0.00 | 64 | 1016.2 |
| 20260508134653 | 14 | 285 | 0.0 | 0.0 | 0.00 | 0.00 | 0.00 | 66 | 1016.2 |
| 20260508133150 | 15 | 282 | 0.0 | 1.6 | 0.00 | 0.00 | 0.00 | 62 | 1016.5 |
| 20260508131647 | 14 | 311 | 0.0 | 1.6 | 0.00 | 0.00 | 0.00 | 65 | 1016.2 |
| 20260508130140 | 13 | 283 | 0.0 | 0.0 | 0.00 | 0.00 | 0.00 | 67 | 1016.4 |
| 20260508124650 | 12 | 236 | 1.6 | 3.2 | 0.00 | 0.00 | 0.00 | 71 | 1016.6 |
| 20260508123124 | 11 | 283 | 0.0 | 1.6 | 0.00 | 0.00 | 0.00 | 76 | 1016.4 |
| 20260508121620 | 10 | 273 | 1.6 | 3.2 | 0.00 | 0.00 | 0.00 | 80 | 1016.6 |
| 20260508120110 | 10 | 315 | 0.0 | 1.6 | 0.00 | 0.00 | 0.00 | 81 | 1016.2 |
| 20260508114600 | 8 | 275 | 0.0 | 0.0 | 0.00 | 0.00 | 0.00 | 83 | 1016.1 |
| 20260508113059 | 8 | 282 | 0.0 | 0.0 | 0.00 | 0.00 | 0.00 | 84 | 1015.8 |
| 20260508111615 | 8 | 284 | 0.0 | 0.0 | 0.00 | 0.00 | 0.00 | 86 | 1015.9 |
| 20260508110054 | 8 | 282 | 0.0 | 0.0 | 0.00 | 0.00 | 0.00 | 87 | 1015.7 |
| 20260508104550 | 8 | 281 | 0.0 | 0.0 | 0.00 | 0.00 | 0.00 | 87 | 1015.7 |
| 20260508103048 | 7 | 277 | 0.0 | 0.0 | 0.00 | 0.00 | 0.00 | 88 | 1015.6 |
| 20260508101540 | 7 | 274 | 0.0 | 0.0 | 0.00 | 0.00 | 0.00 | 87 | 1015.5 |
| 20260508100034 | 7 | 278 | 0.0 | 0.0 | 0.00 | 0.00 | 0.00 | 87 | 1015.5 |
| 20260508094530 | 7 | 278 | 0.0 | 1.6 | 0.00 | 0.00 | 0.00 | 88 | 1015.7 |
| 20260508093022 | 7 | 278 | 0.0 | 0.0 | 0.00 | 0.00 | 0.00 | 89 | 1015.7 |
| 20260508091520 | 7 | 270 | 0.0 | 0.0 | 0.00 | 0.00 | 0.00 | 89 | 1015.5 |
| 20260508090010 | 7 | 275 | 0.0 | 0.0 | 0.00 | 0.00 | 0.00 | 89 | 1015.8 |
| 20260508084502 | 7 | 272 | 0.0 | 0.0 | 0.00 | 0.00 | 0.00 | 88 | 1015.6 |
| 20260508083020 | 7 | 271 | 0.0 | 0.0 | 0.00 | 0.00 | 0.00 | 87 | 1015.6 |
| 20260508081514 | 8 | 191 | 3.2 | 4.8 | 0.00 | 0.00 | 0.00 | 86 | 1015.8 |
| 20260508075950 | 8 | 273 | 0.0 | 0.0 | 0.00 | 0.00 | 0.00 | 86 | 1015.9 |
| 20260508074440 | 7 | 271 | 0.0 | 0.0 | 0.00 | 0.00 | 0.00 | 85 | 1016.0 |
| 20260508072933 | 7 | 271 | 0.0 | 0.0 | 0.00 | 0.00 | 0.00 | 86 | 1015.8 |
| 20260508071430 | 7 | 272 | 0.0 | 0.0 | 0.00 | 0.00 | 0.00 | 85 | 1016.2 |
| 20260508065927 | 7 | 277 | 0.0 | 0.0 | 0.00 | 0.00 | 0.00 | 82 | 1015.9 |
| 20260508064426 | 7 | 274 | 0.0 | 0.0 | 0.00 | 0.00 | 0.00 | 82 | 1016.3 |
| 20260508062922 | 8 | 275 | 0.0 | 0.0 | 0.00 | 0.00 | 0.00 | 80 | 1016.1 |
| 20260508061420 | 8 | 274 | 0.0 | 1.6 | 0.00 | 0.00 | 0.00 | 80 | 1016.1 |
| 20260508055917 | 8 | 277 | 0.0 | 0.0 | 0.00 | 0.00 | 0.00 | 79 | 1016.4 |
| 20260508054430 | 8 | 268 | 0.0 | 0.0 | 0.00 | 0.00 | 0.00 | 77 | 1016.3 |
| 20260508052900 | 8 | 278 | 0.0 | 0.0 | 0.00 | 0.00 | 0.00 | 76 | 1016.5 |
| 20260508051355 | 8 | 269 | 0.0 | 1.6 | 0.00 | 0.00 | 0.00 | 73 | 1016.4 |
| 20260508045910 | 8 | 274 | 0.0 | 0.0 | 0.00 | 0.00 | 0.00 | 72 | 1016.3 |
| 20260508044340 | 9 | 274 | 0.0 | 0.0 | 0.00 | 0.00 | 0.00 | 70 | 1016.5 |
| 20260508042832 | 9 | 272 | 0.0 | 0.0 | 0.00 | 0.00 | 0.00 | 69 | 1016.3 |
| 20260508041330 | 10 | 276 | 0.0 | 0.0 | 0.00 | 0.00 | 0.00 | 68 | 1016.4 |
| 20260508035840 | 10 | 275 | 0.0 | 0.0 | 0.00 | 0.00 | 0.00 | 67 | 1016.3 |
| 20260508034310 | 10 | 276 | 0.0 | 0.0 | 0.00 | 0.00 | 0.00 | 67 | 1016.4 |
| 20260508032810 | 10 | 281 | 0.0 | 0.0 | 0.00 | 0.00 | 0.00 | 66 | 1016.4 |
| 20260508031305 | 10 | 259 | 1.6 | 3.2 | 0.00 | 0.00 | 0.00 | 65 | 1016.6 |
| 20260508025800 | 10 | 272 | 0.0 | 3.2 | 0.00 | 0.00 | 0.00 | 64 | 1016.8 |
| 20260508024250 | 10 | 273 | 0.0 | 0.0 | 0.00 | 0.00 | 0.00 | 64 | 1016.9 |
| 20260508022743 | 10 | 275 | 0.0 | 1.6 | 0.00 | 0.00 | 0.00 | 63 | 1016.6 |
| 20260508021240 | 10 | 264 | 0.0 | 0.0 | 0.00 | 0.00 | 0.00 | 63 | 1016.7 |
| 20260508015738 | 10 | 271 | 0.0 | 1.6 | 0.00 | 0.00 | 0.00 | 62 | 1016.8 |
| 20260508014236 | 10 | 275 | 0.0 | 0.0 | 0.00 | 0.00 | 0.00 | 61 | 1016.7 |
| 20260508012734 | 10 | 271 | 0.0 | 1.6 | 0.00 | 0.00 | 0.00 | 60 | 1016.8 |
| 20260508011230 | 11 | 228 | 0.0 | 1.6 | 0.00 | 0.00 | 0.00 | 59 | 1016.3 |
| 20260508005720 | 11 | 231 | 4.8 | 4.8 | 0.00 | 0.00 | 0.00 | 55 | 1016.5 |
| 20260508004230 | 12 | 184 | 4.8 | 8.0 | 0.00 | 0.00 | 0.00 | 51 | 1016.3 |
| 20260508002709 | 12 | 276 | 0.0 | 1.6 | 0.00 | 0.00 | 0.00 | 44 | 1016.1 |
| 20260508001206 | 13 | 290 | 0.0 | 0.0 | 0.00 | 0.00 | 0.00 | 43 | 1015.9 |
| 20260507235720 | 13 | 288 | 0.0 | 0.0 | 0.00 | 0.00 | 0.00 | 42 | 1015.9 |
| 20260507234150 | 13 | 275 | 0.0 | 0.0 | 0.00 | 0.00 | 0.00 | 40 | 1015.9 |
| 20260507232704 | 13 | 301 | 0.0 | 0.0 | 0.00 | 0.00 | 0.00 | 40 | 1015.9 |
| 20260507231200 | 13 | 286 | 0.0 | 0.0 | 0.00 | 0.00 | 0.00 | 40 | 1016.0 |
| 20260507225659 | 14 | 284 | 0.0 | 0.0 | 0.00 | 0.00 | 0.00 | 38 | 1015.9 |
| 20260507224137 | 14 | 280 | 0.0 | 0.0 | 0.00 | 0.00 | 0.00 | 37 | 1015.9 |
| 20260507222634 | 14 | 302 | 0.0 | 3.2 | 0.00 | 0.00 | 0.00 | 36 | 1016.1 |
| 20260507221152 | 16 | 278 | 0.0 | 1.6 | 0.00 | 0.00 | 0.00 | 36 | 1016.0 |
| 20260507215631 | 16 | 288 | 1.6 | 3.2 | 0.00 | 0.00 | 0.00 | 34 | 1016.1 |
| 20260507214152 | 16 | 280 | 0.0 | 0.0 | 0.00 | 0.00 | 0.00 | 33 | 1016.1 |
| 20260507212644 | 16 | 279 | 0.0 | 3.2 | 0.00 | 0.00 | 0.00 | 37 | 1016.0 |
| 20260507211143 | 17 | 279 | 1.6 | 3.2 | 0.00 | 0.00 | 0.00 | 36 | 1016.0 |
| 20260507205640 | 17 | 279 | 0.0 | 1.6 | 0.00 | 0.00 | 0.00 | 34 | 1016.1 |